AEE1215 LGAV-LGSR

Flight info

Callsign AEE1215
Flight time 0h 36m
Altitude 17000
Route KEA UL607 NETIS M601 PEXAN
Aircraft A320/M-SDE3FGHIRWY/LB1

Departure

Time 2026-05-08 11:40
Airport Athens Eleftherios Venizelos International Airport (LGAV)

Arrival

Time 2026-05-08 12:16
Airport Santorini International Airport (LGSR)
Time Latitude Longitude Altitude Speed Heading
2026-05-08 11:26 37.93486 23.94851 301 ft 0 kts 37°
2026-05-08 11:32 37.93487 23.94852 303 ft 1 kts 37°
2026-05-08 11:32 37.93501 23.94865 302 ft 4 kts 37°
2026-05-08 11:32 37.93537 23.94899 301 ft 9 kts 37°
2026-05-08 11:33 37.93595 23.94955 301 ft 12 kts 37°
2026-05-08 11:33 37.93600 23.95043 302 ft 13 kts 114°
2026-05-08 11:33 37.93640 23.95130 300 ft 14 kts 36°
2026-05-08 11:33 37.93725 23.95208 300 ft 16 kts 39°
2026-05-08 11:34 37.93821 23.95300 300 ft 19 kts 37°
2026-05-08 11:34 37.93933 23.95408 302 ft 20 kts 37°
2026-05-08 11:34 37.94045 23.95515 300 ft 20 kts 37°
2026-05-08 11:34 37.94120 23.95600 302 ft 8 kts 47°
2026-05-08 11:35 37.94175 23.95642 299 ft 11 kts 29°
2026-05-08 11:35 37.94245 23.95702 300 ft 14 kts 36°
2026-05-08 11:35 37.94329 23.95782 300 ft 17 kts 38°
2026-05-08 11:35 37.94360 23.95880 299 ft 14 kts 112°
2026-05-08 11:36 37.94395 23.95990 298 ft 17 kts 35°
2026-05-08 11:36 37.94498 23.96086 299 ft 20 kts 37°
2026-05-08 11:36 37.94615 23.96198 300 ft 22 kts 36°
2026-05-08 11:36 37.94747 23.96321 301 ft 25 kts 37°
2026-05-08 11:37 37.94889 23.96458 302 ft 27 kts 37°
2026-05-08 11:37 37.95043 23.96603 303 ft 29 kts 37°
2026-05-08 11:37 37.95208 23.96759 304 ft 30 kts 37°
2026-05-08 11:37 37.95347 23.96900 305 ft 20 kts 41°
2026-05-08 11:38 37.95391 23.96967 303 ft 10 kts 68°
2026-05-08 11:38 37.95359 23.97015 306 ft 8 kts 163°
2026-05-08 11:38 37.95308 23.97025 309 ft 7 kts 172°
2026-05-08 11:38 37.95230 23.97039 312 ft 14 kts 172°
2026-05-08 11:39 37.95174 23.97007 310 ft 0 kts 218°
2026-05-08 11:39 37.94959 23.96804 307 ft 78 kts 216°
2026-05-08 11:39 37.94582 23.96446 293 ft 121 kts 217°
2026-05-08 11:40 37.93765 23.95674 314 ft 167 kts 216°
2026-05-08 11:40 37.92807 23.94902 1007 ft 164 kts 206°
2026-05-08 11:40 37.91801 23.94208 1727 ft 165 kts 207°
2026-05-08 11:40 37.90777 23.93520 2389 ft 173 kts 207°
2026-05-08 11:41 37.89649 23.92766 2746 ft 193 kts 208°
2026-05-08 11:41 37.88403 23.91923 3117 ft 215 kts 208°
2026-05-08 11:41 37.87021 23.90987 3633 ft 236 kts 206°
2026-05-08 11:41 37.85543 23.89984 4467 ft 244 kts 209°
2026-05-08 11:42 37.84032 23.88949 5401 ft 248 kts 208°
2026-05-08 11:42 37.82497 23.87900 6297 ft 255 kts 210°
2026-05-08 11:42 37.80925 23.86819 7182 ft 259 kts 209°
2026-05-08 11:42 37.79325 23.85722 8022 ft 265 kts 210°
2026-05-08 11:43 37.77671 23.84664 8876 ft 273 kts 200°
2026-05-08 11:43 37.75774 23.84558 9671 ft 281 kts 165°
2026-05-08 11:43 37.74037 23.85799 10207 ft 299 kts 133°
2026-05-08 11:43 37.72771 23.87970 10678 ft 317 kts 121°
2026-05-08 11:44 37.71691 23.90497 11016 ft 338 kts 116°
2026-05-08 11:44 37.70674 23.93237 11595 ft 348 kts 114°
2026-05-08 11:44 37.69661 23.96054 12351 ft 355 kts 114°
2026-05-08 11:44 37.68612 23.98891 13078 ft 359 kts 115°
2026-05-08 11:45 37.67504 24.01737 13785 ft 365 kts 117°
2026-05-08 11:45 37.66340 24.04601 14499 ft 368 kts 117°
2026-05-08 11:45 37.65137 24.07475 15159 ft 373 kts 118°
2026-05-08 11:45 37.63913 24.10373 15815 ft 375 kts 118°
2026-05-08 11:46 37.62681 24.13298 16411 ft 381 kts 118°
2026-05-08 11:46 37.61429 24.16269 17007 ft 385 kts 118°
2026-05-08 11:46 37.60170 24.19264 17216 ft 387 kts 118°
2026-05-08 11:46 37.58909 24.22279 17273 ft 392 kts 118°
2026-05-08 11:47 37.57629 24.25313 17276 ft 393 kts 118°
2026-05-08 11:47 37.56151 24.28196 17270 ft 391 kts 130°
2026-05-08 11:47 37.54297 24.30685 17277 ft 389 kts 141°
2026-05-08 11:47 37.52139 24.32698 17285 ft 386 kts 150°
2026-05-08 11:48 37.49884 24.34458 17269 ft 386 kts 150°
2026-05-08 11:48 37.47604 24.36241 17276 ft 386 kts 150°
2026-05-08 11:48 37.45325 24.38025 17273 ft 385 kts 150°
2026-05-08 11:48 37.43015 24.39838 17281 ft 386 kts 150°
2026-05-08 11:49 37.40739 24.41625 17281 ft 387 kts 150°
2026-05-08 11:49 37.38451 24.43423 17290 ft 387 kts 150°
2026-05-08 11:49 37.36170 24.45215 17287 ft 387 kts 150°
2026-05-08 11:49 37.33887 24.47004 17291 ft 387 kts 150°
2026-05-08 11:50 37.31602 24.48795 17283 ft 387 kts 150°
2026-05-08 11:50 37.29351 24.50561 17282 ft 387 kts 150°
2026-05-08 11:50 37.27071 24.52349 17286 ft 386 kts 150°
2026-05-08 11:50 37.24758 24.54154 17286 ft 386 kts 150°
2026-05-08 11:51 37.22474 24.55923 17294 ft 386 kts 150°
2026-05-08 11:51 37.20192 24.57702 17288 ft 385 kts 150°
2026-05-08 11:51 37.17913 24.59477 17285 ft 386 kts 150°
2026-05-08 11:51 37.15632 24.61255 17282 ft 387 kts 150°
2026-05-08 11:52 37.13341 24.63035 17309 ft 387 kts 151°
2026-05-08 11:52 37.11047 24.64810 17308 ft 387 kts 150°
2026-05-08 11:52 37.08756 24.66582 17316 ft 386 kts 150°
2026-05-08 11:52 37.06470 24.68353 17311 ft 386 kts 150°
2026-05-08 11:53 37.04199 24.70118 17185 ft 379 kts 150°
2026-05-08 11:53 37.02018 24.71816 16939 ft 369 kts 150°
2026-05-08 11:53 36.99870 24.73487 16694 ft 359 kts 150°
2026-05-08 11:53 36.97774 24.75115 16441 ft 352 kts 150°
2026-05-08 11:54 36.95698 24.76723 16216 ft 350 kts 151°
2026-05-08 11:54 36.93633 24.78326 15973 ft 348 kts 150°
2026-05-08 11:54 36.91585 24.79906 15682 ft 343 kts 149°
2026-05-08 11:54 36.89557 24.81474 15254 ft 342 kts 150°
2026-05-08 11:55 36.87535 24.83038 14803 ft 342 kts 150°
2026-05-08 11:55 36.85512 24.84600 14370 ft 341 kts 150°
2026-05-08 11:55 36.83495 24.86158 13926 ft 340 kts 149°
2026-05-08 11:55 36.81486 24.87711 13488 ft 339 kts 150°
2026-05-08 11:56 36.79488 24.89253 13048 ft 337 kts 149°
2026-05-08 11:56 36.77493 24.90795 12603 ft 337 kts 149°
2026-05-08 11:56 36.75508 24.92331 12179 ft 335 kts 149°
2026-05-08 11:56 36.73526 24.93868 11723 ft 335 kts 148°
2026-05-08 11:57 36.71753 24.95732 11282 ft 334 kts 131°
2026-05-08 11:57 36.70487 24.98109 10836 ft 325 kts 114°
2026-05-08 11:57 36.69828 25.00726 10416 ft 310 kts 97°
2026-05-08 11:57 36.69557 25.03348 9895 ft 302 kts 96°
2026-05-08 11:58 36.69295 25.05907 9727 ft 298 kts 96°
2026-05-08 11:58 36.69029 25.08476 9240 ft 298 kts 96°
2026-05-08 11:58 36.68761 25.11006 8698 ft 292 kts 96°
2026-05-08 11:59 36.68229 25.15984 7616 ft 287 kts 95°
2026-05-08 11:59 36.67923 25.18424 7078 ft 285 kts 102°
2026-05-08 11:59 36.67415 25.20801 6546 ft 282 kts 104°
2026-05-08 11:59 36.66900 25.23184 6083 ft 286 kts 103°
2026-05-08 12:00 36.66388 25.25558 5815 ft 282 kts 103°
2026-05-08 12:00 36.65881 25.27910 5452 ft 281 kts 104°
2026-05-08 12:00 36.65383 25.30239 4889 ft 277 kts 103°
2026-05-08 12:00 36.64886 25.32548 4264 ft 275 kts 104°
2026-05-08 12:01 36.64238 25.34751 3873 ft 266 kts 120°
2026-05-08 12:01 36.63131 25.36475 3718 ft 247 kts 139°
2026-05-08 12:01 36.61760 25.37596 3583 ft 227 kts 157°
2026-05-08 12:01 36.60324 25.38283 3504 ft 218 kts 160°
2026-05-08 12:02 36.58953 25.38931 3430 ft 202 kts 160°
2026-05-08 12:02 36.57685 25.39531 3324 ft 188 kts 159°
2026-05-08 12:02 36.56523 25.40083 3240 ft 170 kts 159°
2026-05-08 12:02 36.55463 25.40586 3178 ft 159 kts 160°
2026-05-08 12:03 36.54439 25.41071 3092 ft 156 kts 161°
2026-05-08 12:03 36.53427 25.41557 2839 ft 155 kts 159°
2026-05-08 12:03 36.52436 25.42033 2643 ft 149 kts 160°
2026-05-08 12:03 36.51468 25.42486 2426 ft 148 kts 159°
2026-05-08 12:04 36.50503 25.42938 2225 ft 148 kts 160°
2026-05-08 12:04 36.49545 25.43387 2034 ft 148 kts 158°
2026-05-08 12:04 36.48589 25.43842 1832 ft 148 kts 159°
2026-05-08 12:04 36.47630 25.44293 1639 ft 147 kts 159°
2026-05-08 12:05 36.46670 25.44739 1441 ft 147 kts 158°
2026-05-08 12:05 36.45715 25.45187 1210 ft 145 kts 160°
2026-05-08 12:05 36.44769 25.45629 1055 ft 147 kts 158°
2026-05-08 12:05 36.43819 25.46083 829 ft 145 kts 158°
2026-05-08 12:06 36.42887 25.46526 629 ft 145 kts 158°
2026-05-08 12:06 36.41936 25.46975 372 ft 143 kts 158°
2026-05-08 12:06 36.41024 25.47393 172 ft 142 kts 160°
2026-05-08 12:06 36.40144 25.47816 94 ft 123 kts 159°
2026-05-08 12:07 36.39334 25.48202 210 ft 140 kts 158°
2026-05-08 12:07 36.38354 25.48677 843 ft 157 kts 158°
2026-05-08 12:07 36.37309 25.49156 1696 ft 165 kts 160°
2026-05-08 12:07 36.36188 25.49657 2332 ft 176 kts 160°
2026-05-08 12:08 36.34961 25.50184 2674 ft 197 kts 161°
2026-05-08 12:08 36.33603 25.50763 3111 ft 213 kts 161°
2026-05-08 12:08 36.32241 25.51539 3532 ft 219 kts 140°
2026-05-08 12:08 36.31380 25.53043 3582 ft 215 kts 104°
2026-05-08 12:09 36.31376 25.54841 3612 ft 209 kts 68°
2026-05-08 12:09 36.32203 25.56249 3608 ft 202 kts 30°
2026-05-08 12:09 36.33508 25.56797 3598 ft 199 kts
2026-05-08 12:09 36.34877 25.56953 3482 ft 197 kts
2026-05-08 12:10 36.36245 25.57052 3194 ft 197 kts
2026-05-08 12:10 36.37608 25.57145 3107 ft 199 kts
2026-05-08 12:10 36.38987 25.57229 3090 ft 198 kts
2026-05-08 12:10 36.40345 25.56996 3092 ft 198 kts 344°
2026-05-08 12:11 36.41665 25.56507 3095 ft 199 kts 342°
2026-05-08 12:11 36.42979 25.55986 3100 ft 198 kts 341°
2026-05-08 12:11 36.44291 25.55453 3097 ft 203 kts 341°
2026-05-08 12:11 36.45739 25.54866 3094 ft 228 kts 341°
2026-05-08 12:12 36.47259 25.54251 3036 ft 229 kts 342°
2026-05-08 12:12 36.48766 25.53639 2856 ft 224 kts 341°
2026-05-08 12:12 36.50210 25.53034 2739 ft 214 kts 337°
2026-05-08 12:12 36.51327 25.51920 2610 ft 205 kts 303°
2026-05-08 12:13 36.51667 25.50269 2503 ft 196 kts 266°
2026-05-08 12:13 36.51230 25.48723 2413 ft 186 kts 236°
2026-05-08 12:13 36.50396 25.47555 2282 ft 176 kts 228°
2026-05-08 12:13 36.49556 25.46528 2173 ft 160 kts 227°
2026-05-08 12:14 36.48699 25.45747 2123 ft 151 kts 205°
2026-05-08 12:14 36.47699 25.45412 1887 ft 148 kts 191°
2026-05-08 12:14 36.46678 25.45346 1636 ft 147 kts 180°
2026-05-08 12:14 36.45660 25.45422 1387 ft 146 kts 174°
2026-05-08 12:15 36.44663 25.45657 1085 ft 146 kts 163°
2026-05-08 12:15 36.43707 25.46075 827 ft 146 kts 156°
2026-05-08 12:15 36.42787 25.46567 561 ft 143 kts 156°
2026-05-08 12:15 36.41859 25.47011 298 ft 142 kts 160°
2026-05-08 12:16 36.40948 25.47427 140 ft 142 kts 158°
2026-05-08 12:16 36.40072 25.47845 89 ft 116 kts 160°
2026-05-08 12:16 36.39588 25.48073 66 ft 51 kts 159°
2026-05-08 12:16 36.39258 25.48222 64 ft 49 kts 160°
2026-05-08 12:17 36.39061 25.48301 52 ft 15 kts 160°
2026-05-08 12:17 36.39006 25.48218 52 ft 14 kts 256°
2026-05-08 12:17 36.39041 25.48150 52 ft 10 kts 349°
2026-05-08 12:17 36.39106 25.48132 56 ft 10 kts 340°
2026-05-08 12:18 36.39169 25.48102 55 ft 10 kts 339°
2026-05-08 12:18 36.39236 25.48070 58 ft 11 kts 339°
2026-05-08 12:18 36.39308 25.48035 65 ft 12 kts 339°
2026-05-08 12:18 36.39389 25.47998 69 ft 13 kts 339°
2026-05-08 12:19 36.39478 25.47956 67 ft 14 kts 339°
2026-05-08 12:19 36.39575 25.47909 69 ft 16 kts 339°
2026-05-08 12:19 36.39681 25.47859 83 ft 16 kts 339°
2026-05-08 12:19 36.39788 25.47808 85 ft 17 kts 339°
2026-05-08 12:20 36.39907 25.47753 90 ft 19 kts 339°
2026-05-08 12:20 36.40021 25.47699 91 ft 15 kts 338°
2026-05-08 12:20 36.40108 25.47657 90 ft 7 kts 339°
2026-05-08 12:20 36.40122 25.47651 90 ft 1 kts 339°
2026-05-08 12:21 36.40128 25.47646 89 ft 4 kts 324°
2026-05-08 12:22 36.40131 25.47590 90 ft 9 kts 256°
2026-05-08 12:22 36.40111 25.47509 88 ft 8 kts 249°
2026-05-08 12:22 36.40106 25.47495 89 ft 0 kts 249°